Regional Weather Roundup
Issued by NWS Mobile, AL

Home | Current Version | Previous Version | Text Only | Print | Product List | Glossary On
Versions: 1 2 3 4 5 6 7 8 9 10 11 12 13 14 15 16 17 18 19 20 21 22 23 24 25 26 27 28 29 30 31 32 33 34 35 36 37 38 39 40 41 42 43 44 45 46 47 48 49 50
000
ASUS44 KMOB 260012
RWRMOB
REGIONAL WEATHER ROUNDUP
NATIONAL WEATHER SERVICE MOBILE AL
700 PM CDT TUE APR 25 2017

NOTE: "FAIR" INDICATES FEW OR NO CLOUDS BELOW 12,000 FEET WITH NO
      SIGNIFICANT WEATHER AND/OR OBSTRUCTIONS TO VISIBILITY.

  * THESE STATIONS ARE PART OF THE UNIVERSITY OF SOUTH ALABAMA
    MESONET AND ARE NOT UNDER NWS OR FAA QUALITY CONTROL.

ALZ061>064-260100-
COASTAL ALABAMA

CITY           SKY/WX    TMP DP  RH WIND       PRES   REMARKS
MOBILE REG APT PTCLDY    72  57  59 S14       29.77S
6HR MIN TEMP:  72; 6HR MAX TEMP:  82;

BROOKLEY FIELD CLEAR     73  59  61 S7        29.78R
6HR MIN TEMP:  73; 6HR MAX TEMP:  81;

USA CAMPUS*      N/A     72  57  60 CALM      29.77S
DOG RIVER*       N/A     72  59  64 S8        30.45R


CITY           SKY/WX    TMP DP  RH WIND       PRES   REMARKS
GULF SHORES    CLEAR     71  60  67 SW8       29.78S

$$

ALZ051>060-260100-
INTERIOR SOUTHWEST AND SOUTH CENTRAL ALABAMA

CITY           SKY/WX    TMP DP  RH WIND       PRES   REMARKS
GREENVILLE     CLEAR     77  53  43 SW3       29.74S
6HR MIN TEMP:  76; 6HR MAX TEMP:  82;

EVERGREEN      CLEAR     76  55  48 CALM      29.74F
6HR MIN TEMP:  76; 6HR MAX TEMP:  82;

ATMORE*          N/A     73  55  53 SW9       29.77R
ANDALUSIA/OPP  CLEAR     79  53  40 CALM      29.74F
6HR MIN TEMP:  79; 6HR MAX TEMP:  84;

ANDALUSIA*       N/A     77  54  44 SW2       29.75F
FLORALA APT    CLEAR     74  56  53 SW12      29.77S
6HR MIN TEMP:  74; 6HR MAX TEMP:  81;

FLORALA*         N/A     75  59  57 E5        30.38S

$$

FLZ001>006-260100-
WESTERN FLORIDA PANHANDLE

CITY           SKY/WX    TMP DP  RH WIND       PRES   REMARKS
PENSACOLA      CLEAR     74  54  49 SW14      29.77S
6HR MIN TEMP:  74; 6HR MAX TEMP:  81;

NAS PENSACOLA  PTCLDY    72  57  59 SW8       29.77S
6HR MIN TEMP:  72; 6HR MAX TEMP:  79;

MILTON         PTCLDY    73  58  59 SW9       29.76S
6HR MIN TEMP:  73; 6HR MAX TEMP:  80;

WHTNG S FIELD  PTCLDY    75  59  57 SW6       29.77R
6HR MIN TEMP:  75; 6HR MAX TEMP:  82;



CITY           SKY/WX    TMP DP  RH WIND       PRES   REMARKS
JAY*             N/A     75  55  50 S9        29.75R
DUKE FIELD     PTCLDY    74  60  61 S13       29.76R
CRESTVIEW      CLEAR     73  58  59 SW9       29.77S
6HR MIN TEMP:  73; 6HR MAX TEMP:  83;

VALPARAISO     PTCLDY    73  58  60 SW9       29.77S
6HR MIN TEMP:  73; 6HR MAX TEMP:  77;

DESTIN         CLEAR     75  64  68 SW7       29.77F
6HR MIN TEMP:  75; 6HR MAX TEMP:  79;


$$

MSZ076-079-260100-
INTERIOR SOUTHEAST MISSISSIPPI

CITY           SKY/WX    TMP DP  RH WIND       PRES   REMARKS
LEAKESVILLE*   NOT AVBL
AGRICOLA*        N/A     72  59  64 SW3       29.75S

$$

MARINE OBSERVATIONS

STATION/POSITION TIME  TEMP    WIND        PRES    WAVE
                       AIR SEA DIR/SP/G            HT/PER
                 (UTC) (F)     (DEG/KT/KT) (MB)    (FT/S)
PASCAGOULA       2348   72     200/  7/ 10 1008.1F
PETIT BOIS ISLND 2348   71     210/ 10/ 13 1008.9F
GRAND BAY        2245   73     200/  9     1009.0F
KATRINA CUT      2330   72     210/ 12     1008.5F
CEDAR POINT      2330   72     220/ 13     1008.1S
E DAUPHIN ISLAND 2300   72     210/ 10/ 12 1008.3F
MIDDLE BAY LIGHT 2330   72     210/ 16     1008.5S
USCG MOBILE BAY  2348   72 73  210/  7/ 12 1008.6R
STATE DOCKS      2348   73 76              1007.7R
MEAHER PARK      2330   73     190/ 12     1008.1S
FORT MORGAN      2348   72     210/ 13/ 15   N/A
12 S ORANGE BCH  2350   71 74  240/ 10/ 12 1008.2F   1/ 4
PENSACOLA BAY    2348          260/  1/  4 1008.5S
64 S DAUPHIN ISL 2350   72 75  210/  8/ 10 1008.8F   1/ 3
67 S FORT MORGAN 2330   71     220/  8     1008.8F

$$

SELECTED LOCATIONS ACROSS THE REGION

CITY           SKY/WX    TMP DP  RH WIND       PRES   REMARKS
NEW ORLEANS    PTCLDY    73  58  59 S9        29.75S
GULFPORT       CLEAR     73  58  59 S8        29.76S
PASCAGOULA AP  CLEAR     71  56  58 SW6       29.77S
PASCAGOULA*    NOT AVBL
HATTIESBURG    CLEAR     77  55  46 S12       29.72S
LAUREL         CLEAR     75  55  50 S6        29.73S
MERIDIAN       CLEAR     77  58  51 S6        29.70F
JACKSON        CLEAR     78  54  43 S12       29.68F
MONTGOMERY     CLEAR     78  53  41 S3        29.73F
TROY           CLEAR     74  55  51 S3        29.75S
ASHFORD*         N/A     77  54  44 SW2       29.75F
DOTHAN         CLEAR     76  51  41 SW6       29.78S
PANAMA CITY    CLEAR     72  57  59 SW9       29.77S

$$




USA.gov is the U.S. government's official web portal to all federal, state and local government web resources and services.